Darrow, LA

3:47 PM CST on December 03, 2016 (GMT -0600)
Gonzales

Weather History for KL38 - January, 2014

Change the Weather History Date:

Tuesday, January 14, 2014

  Actual Average (KBTR) Record (KBTR)
Temperature  
Mean Temperature 51 °F 52 °F  
Max Temperature 64 °F 62 °F 82 °F (1937)
Min Temperature 38 °F 41 °F 20 °F (1964)
Degree Days  
Heating Degree Days 14 14  
Month to date heating degree days 196  
Since 1 July heating degree days 812  
Cooling Degree Days 0 0  
Month to date cooling degree days 3  
Year to date cooling degree days 3  
Growing Degree Days 1 (Base 50)    
Moisture  
Dew Point 35 °F    
Average Humidity 55    
Maximum Humidity 89    
Minimum Humidity 25    
Precipitation  
Precipitation 0.00 in 0.19 in 1.41 in (2013)
Month to date precipitation 2.52  
Year to date precipitation 2.52  
Snow  
Snow 0.00 in - - ()
Month to date snowfall  
Since 1 July snowfall  
Snow Depth -    
Sea Level Pressure  
Sea Level Pressure 30.09 in    
Wind  
Wind Speed 4 mph (West)    
Max Wind Speed 8 mph    
Max Gust Speed -    
Visibility 10 miles    
Events      
T = Trace of Precipitation, MM = Missing Value Source: NWS Daily Summary

Daily Weather History Graph

Daily Weather History Graph

Search for Another Location

Airport or City:

Trip Planner

Search our weather history database for the weather conditions in past years. The results will help you decide how hot, cold, wet, or windy it might be!

Date:

Astronomy

Jan. 14, 2014 Rise Set
Actual Time 7:00 AM CST 5:25 PM CST
Civil Twilight 6:34 AM CST 5:51 PM CST
Nautical Twilight 6:05 AM CST 6:20 PM CST
Astronomical Twilight 5:36 AM CST 6:49 PM CST
Moon 4:28 PM CST (1/14) 5:37 AM CST (1/14)
Length of Visible Light 11h 16m
Length of Day
10h 24m
Waxing Gibbous, 98% of the Moon is Illuminated
Jan 14
Waxing Gibbous
Jan 15
Full
Jan 23
Last Quarter
Jan 30
New
Feb 6
First Quarter

Hourly Weather History & Observations

Time (CST) Temp. Dew Point Humidity Pressure Visibility Wind Dir Wind Speed Gust Speed Precip Events Conditions
12:15 AM 54.1 °F 36.9 °F 52% 30.04 in 10.0 mi WNW 4.6 mph - N/A   Clear
12:35 AM 52.7 °F 36.7 °F 55% 30.04 in 10.0 mi NW 8.1 mph - N/A   Clear
12:55 AM 52.0 °F 36.1 °F 55% 30.04 in 10.0 mi NW 6.9 mph - N/A   Clear
1:15 AM 51.1 °F 35.4 °F 55% 30.05 in 10.0 mi NW 5.8 mph - N/A   Clear
1:35 AM 51.3 °F 35.1 °F 54% 30.05 in 10.0 mi WNW 6.9 mph - N/A   Clear
1:55 AM 51.3 °F 34.2 °F 52% 30.05 in 10.0 mi WNW 8.1 mph - N/A   Clear
2:15 AM 51.3 °F 33.8 °F 51% 30.05 in 10.0 mi WNW 6.9 mph - N/A   Clear
2:35 AM 50.7 °F 33.4 °F 52% 30.05 in 10.0 mi NW 5.8 mph - N/A   Clear
2:55 AM 49.5 °F 33.3 °F 54% 30.05 in 10.0 mi NW 4.6 mph - N/A   Clear
3:15 AM 47.1 °F 33.6 °F 59% 30.04 in 10.0 mi NW 3.5 mph - N/A   Clear
3:35 AM 44.6 °F 34.9 °F 69% 30.05 in 10.0 mi North - - N/A   Clear
3:55 AM 45.9 °F 34.3 °F 64% 30.05 in 10.0 mi North - - N/A   Clear
4:15 AM 44.8 °F 34.7 °F 68% 30.05 in 10.0 mi North - - N/A   Clear
4:35 AM 42.6 °F 35.6 °F 76% 30.05 in 10.0 mi North - - N/A   Clear
4:55 AM 42.4 °F 34.9 °F 75% 30.06 in 10.0 mi North - - N/A   Clear
5:15 AM 43.0 °F 34.3 °F 72% 30.06 in 10.0 mi North - - N/A   Clear
5:35 AM 41.9 °F 34.7 °F 76% 30.06 in 10.0 mi North - - N/A   Clear
5:55 AM 41.9 °F 34.7 °F 76% 30.07 in 10.0 mi North - - N/A   Clear
6:15 AM 40.8 °F 34.9 °F 79% 30.08 in 10.0 mi North - - N/A   Clear
6:35 AM 41.0 °F 35.1 °F 79% 30.08 in 10.0 mi North - - N/A   Clear
6:55 AM 41.7 °F 34.5 °F 76% 30.09 in 10.0 mi North - - N/A   Clear
7:15 AM 38.8 °F 34.9 °F 86% 30.10 in 10.0 mi North - - N/A   Clear
7:35 AM 39.2 °F 36.3 °F 89% 30.11 in 10.0 mi North - - N/A   Clear
7:55 AM 44.2 °F 37.6 °F 77% 30.11 in 10.0 mi Calm Calm - N/A   Clear
8:15 AM 45.7 °F 39.4 °F 79% 30.11 in 10.0 mi Calm Calm - N/A   Clear
8:35 AM 48.7 °F 37.2 °F 64% 30.12 in 10.0 mi Calm Calm - N/A   Clear
8:55 AM 51.1 °F 35.4 °F 55% 30.12 in 10.0 mi NNW 3.5 mph - N/A   Clear
9:15 AM 53.2 °F 37.0 °F 54% 30.11 in 10.0 mi NNE 3.5 mph - N/A   Clear
9:35 AM 54.1 °F 37.0 °F 52% 30.12 in 10.0 mi Calm Calm - N/A   Clear
9:55 AM 55.9 °F 37.2 °F 49% 30.12 in 10.0 mi Calm Calm - N/A   Clear
10:15 AM 56.7 °F 37.9 °F 50% 30.13 in 10.0 mi NNW 3.5 mph - N/A   Clear
10:35 AM 58.3 °F 38.1 °F 47% 30.13 in 10.0 mi Calm Calm - N/A   Clear
10:55 AM 58.6 °F 36.9 °F 44% 30.13 in 10.0 mi Calm Calm - N/A   Clear
11:15 AM 60.3 °F 34.7 °F 38% 30.12 in 10.0 mi Calm Calm - N/A   Clear
11:35 AM 60.8 °F 33.8 °F 36% 30.11 in 10.0 mi Calm Calm - N/A   Clear
11:55 AM 61.0 °F 31.1 °F 32% 30.10 in 10.0 mi Calm Calm - N/A   Clear
12:15 PM 62.2 °F 33.4 °F 34% 30.09 in 10.0 mi NW 4.6 mph - N/A   Clear
12:35 PM 63.5 °F 37.0 °F 38% 30.08 in 10.0 mi Calm Calm - N/A   Clear
12:55 PM 62.6 °F 35.1 °F 36% 30.07 in 10.0 mi WSW 3.5 mph - N/A   Clear
1:15 PM 62.8 °F 33.8 °F 34% 30.06 in 10.0 mi Calm Calm - N/A   Clear
1:35 PM 63.7 °F 31.3 °F 30% 30.06 in 10.0 mi West 5.8 mph - N/A   Clear
1:55 PM 63.7 °F 29.8 °F 28% 30.05 in 10.0 mi NNW 3.5 mph - N/A   Clear
2:15 PM 64.0 °F 27.7 °F 25% 30.05 in 10.0 mi North - - N/A   Clear
2:35 PM 64.0 °F 27.3 °F 25% 30.05 in 10.0 mi West 3.5 mph - N/A   Clear
2:55 PM 64.4 °F 28.8 °F 26% 30.05 in 10.0 mi WSW 3.5 mph - N/A   Clear
3:15 PM 64.4 °F 29.1 °F 27% 30.06 in 10.0 mi WSW 8.1 mph - N/A   Clear
3:35 PM 64.2 °F 28.9 °F 27% 30.06 in 10.0 mi Calm Calm - N/A   Clear
3:55 PM 64.4 °F 28.2 °F 26% 30.07 in 10.0 mi SW 4.6 mph - N/A   Clear
4:15 PM 64.2 °F 28.0 °F 26% 30.07 in 10.0 mi SW 4.6 mph - N/A   Clear
4:35 PM 63.7 °F 29.7 °F 28% 30.07 in 10.0 mi West 3.5 mph - N/A   Clear
4:55 PM 62.4 °F 30.7 °F 30% 30.07 in 10.0 mi SSW 3.5 mph - N/A   Clear
5:15 PM 59.5 °F 32.2 °F 36% 30.07 in 10.0 mi Calm Calm - N/A   Clear
5:35 PM 55.9 °F 36.9 °F 49% 30.08 in 10.0 mi Calm Calm - N/A   Clear
5:55 PM 55.0 °F 36.3 °F 49% 30.08 in 10.0 mi SSW 3.5 mph - N/A   Clear
6:15 PM 53.4 °F 36.7 °F 53% 30.09 in 10.0 mi SSW 3.5 mph - N/A   Clear
6:35 PM 51.6 °F 37.0 °F 58% 30.09 in 10.0 mi SSW 3.5 mph - N/A   Clear
6:55 PM 53.4 °F 34.2 °F 48% 30.10 in 10.0 mi SW 4.6 mph - N/A   Clear
7:15 PM 54.5 °F 35.1 °F 48% 30.11 in 10.0 mi SW 4.6 mph - N/A   Clear
7:35 PM 53.8 °F 36.5 °F 52% 30.12 in 10.0 mi Calm Calm - N/A   Clear
7:55 PM 53.1 °F 36.5 °F 53% 30.13 in 10.0 mi SW 3.5 mph - N/A   Clear
8:15 PM 52.5 °F 36.1 °F 54% 30.13 in 10.0 mi Calm Calm - N/A   Clear
8:35 PM 51.4 °F 36.3 °F 56% 30.13 in 10.0 mi Calm Calm - N/A   Clear
8:55 PM 50.4 °F 36.5 °F 59% 30.13 in 10.0 mi Calm Calm - N/A   Clear
9:15 PM 48.0 °F 37.6 °F 67% 30.13 in 10.0 mi Calm Calm - N/A   Clear
9:35 PM 45.1 °F 38.3 °F 77% 30.13 in 10.0 mi Calm Calm - N/A   Clear
9:55 PM 44.6 °F 38.1 °F 78% 30.13 in 10.0 mi Calm Calm - N/A   Clear
10:15 PM 47.3 °F 37.2 °F 68% 30.13 in 10.0 mi West 3.5 mph - N/A   Clear
10:35 PM 46.8 °F 37.6 °F 70% 30.13 in 10.0 mi WSW 3.5 mph - N/A   Clear
10:55 PM 47.1 °F 37.9 °F 70% 30.12 in 10.0 mi West 3.5 mph - N/A   Clear
11:15 PM 45.9 °F 37.9 °F 74% 30.12 in 10.0 mi Calm Calm - N/A   Clear
11:35 PM 43.2 °F 37.8 °F 81% 30.11 in 10.0 mi Calm Calm - N/A   Clear
11:55 PM 41.9 °F 38.3 °F 87% 30.11 in 10.0 mi Calm Calm - N/A   Clear